******************************************************************************* JPL/HORIZONS Great September comet (C/1882 R1-A) 2025-Dec-12 18:08:05 Rec #:90001787 Soln.date: - # obs: 4 (1882-1883) IAU76/J2000 helio. ecliptic osc. elements (au, days, deg., period=Julian yrs): EPOCH= 2408709.5 ! 1882-Sep-21.0000000 (TDB) RMSW= n.a. EC= .999899 QR= .00775 TP= 2408706.2241000002 OM= 347.6563 W= 69.5843 IN= 142.0112 A= 76.73267326731326 MA= .00480357102839433 ADIST= 153.4575965346265 PER= 672.16933451889 N= .001466336 ANGMOM= .00214159 DAN= .01149 DDN= .0238 L= 282.9361384 B= 35.2289563 TP= 1882-Sep-17.7241000002 Comet physical (GM= km^3/s^2; RAD= km): GM= n.a. RAD= n.a. M1= n.a. M2= n.a. k1= n.a. k2= n.a. PHCOF= n.a. COMET comments 1: soln ref.= SAO_2008, data arc: 1882-10-10 to 1883-02-28 2: epoch may be 2408710.0 (hour ambiguous: 12h/0h); time units are UT, but set to E ******************************************************************************* ******************************************************************************* Ephemeris / WWW_USER Fri Dec 12 18:08:05 2025 Pasadena, USA / Horizons ******************************************************************************* Target body name: Great September comet (C/1882 R1-A) {source: SAO_200820} Center body name: Earth (399) {source: DE441} Center-site name: GEOCENTRIC ******************************************************************************* Start time : A.D. 1882-Sep-17 16:00:00.0000 UT Stop time : A.D. 1882-Sep-17 16:30:00.0000 UT Step-size : 180 steps ******************************************************************************* Target pole/equ : undefined Target radii : undefined Center geodetic : 0.0, 0.0, -6378.137 {E-lon(deg),Lat(deg),Alt(km)} Center cylindric: 0.0, 0.0, 0.0 {E-lon(deg),Dxy(km),Dz(km)} Center pole/equ : ITRF93 {East-longitude positive} Center radii : 6378.137, 6378.137, 6356.752 km {Equator_a, b, pole_c} Target primary : Sun Vis. interferer : MOON (R_eq= 1737.400) km {source: DE441} Rel. light bend : Sun {source: DE441} Rel. lght bnd GM: 1.3271E+11 km^3/s^2 Small-body perts: Yes {source: SB441-N16} Atmos refraction: NO (AIRLESS) RA format : HMS Time format : CAL Calendar mode : Mixed Julian/Gregorian EOP file : eop.251212.p260310 EOP coverage : DATA-BASED 1962-JAN-20 TO 2025-DEC-12. PREDICTS-> 2026-MAR-09 Units conversion: 1 au= 149597870.700 km, c= 299792.458 km/s, 1 day= 86400.0 s Table cut-offs 1: Elevation (-90.0deg=NO ),Airmass (>38.000=NO), Daylight (NO ) Table cut-offs 2: Solar elongation ( 0.0,180.0=NO ),Local Hour Angle( 0.0=NO ) Table cut-offs 3: RA/DEC angular rate ( 0.0=NO ) ******************************************************************************* Initial IAU76/J2000 heliocentric ecliptic osculating elements (au, days, deg.): EPOCH= 2408709.5 ! 1882-Sep-21.0000000 (TDB) RMSW= n.a. EC= .999899 QR= .00775 TP= 2408706.2241000002 OM= 347.6563 W= 69.5843 IN= 142.0112 Equivalent ICRF heliocentric cartesian coordinates (au, au/d): X=-1.218937686800583E-01 Y= 1.983908417216965E-01 Z=-3.243398900556439E-02 VX=-1.786532129118658E-02 VY= 4.598353293098484E-02 VZ=-8.938017003667023E-03 Comet physical (GM= km^3/s^2; RAD= km): GM= n.a. RAD= n.a. M1= n.a. M2= n.a. k1= n.a. k2= n.a. PHCOF= n.a. ***************************************************************************************************************************** Date__(UT)__HR:MN:SC.fff r rdot delta deldot VmagSn VmagOb S-O-T /r ***************************************************************************************************************************** $$SOE 1882-Sep-17 16:00:00.000 0.013902020625 -237.633768 0.99071877347207 201.420985 357.2306509 376.0349405 0.1226 /L 1882-Sep-17 16:00:10.000 0.013886147644 -237.598304 0.99073223891612 201.731036 357.4347820 376.2294133 0.1217 /L 1882-Sep-17 16:00:20.000 0.013870277064 -237.562367 0.99074572508204 202.041831 357.6392325 376.4241762 0.1207 /L 1882-Sep-17 16:00:30.000 0.013854408917 -237.525953 0.99075923202088 202.353373 357.8440027 376.6192296 0.1198 /L 1882-Sep-17 16:00:40.000 0.013838543234 -237.489059 0.99077275978185 202.665663 358.0490931 376.8145737 0.1188 /L 1882-Sep-17 16:00:50.000 0.013822680049 -237.451684 0.99078630841493 202.978703 358.2545041 377.0102089 0.1179 /L 1882-Sep-17 16:01:00.000 0.013806819393 -237.413822 0.99079987797023 203.292495 358.4602362 377.2061354 0.1170 /L 1882-Sep-17 16:01:10.000 0.013790961299 -237.375473 0.99081346849802 203.607043 358.6662898 377.4023536 0.1160 /L 1882-Sep-17 16:01:20.000 0.013775105801 -237.336632 0.99082708004804 203.922347 358.8726653 377.5988637 0.1151 /L 1882-Sep-17 16:01:30.000 0.013759252930 -237.297297 0.99084071267213 204.238409 359.0793631 377.7956661 0.1142 /L 1882-Sep-17 16:01:40.000 0.013743402720 -237.257464 0.99085436642031 204.555233 359.2863836 377.9927611 0.1133 /L 1882-Sep-17 16:01:50.000 0.013727555204 -237.217131 0.99086804134339 204.872819 359.4937273 378.1901488 0.1123 /L 1882-Sep-17 16:02:00.000 0.013711710416 -237.176294 0.99088173749235 205.191171 359.7013945 378.3878298 0.1114 /L 1882-Sep-17 16:02:10.000 0.013695868389 -237.134951 0.99089545491826 205.510289 359.9093857 378.5858041 0.1105 /L 1882-Sep-17 16:02:20.000 0.013680029159 -237.093098 0.99090919367172 205.830177 360.1177013 378.7840721 0.1096 /L 1882-Sep-17 16:02:30.000 0.013664192758 -237.050733 0.99092295380541 206.150836 360.3263417 378.9826341 0.1087 /L 1882-Sep-17 16:02:40.000 0.013648359221 -237.007851 0.99093673537020 206.472269 360.5353072 379.1814904 0.1078 /L 1882-Sep-17 16:02:50.000 0.013632528583 -236.964451 0.99095053841774 206.794478 360.7445984 379.3806412 0.1069 /L 1882-Sep-17 16:03:00.000 0.013616700879 -236.920528 0.99096436299984 207.117464 360.9542155 379.5800868 0.1060 /L 1882-Sep-17 16:03:10.000 0.013600876143 -236.876079 0.99097820916843 207.441230 361.1641589 379.7798274 0.1052 /L 1882-Sep-17 16:03:20.000 0.013585054412 -236.831102 0.99099207697495 207.765778 361.3744292 379.9798633 0.1043 /L 1882-Sep-17 16:03:30.000 0.013569235719 -236.785593 0.99100596647293 208.091110 361.5850266 380.1801949 0.1034 /L 1882-Sep-17 16:03:40.000 0.013553420101 -236.739548 0.99101987771409 208.417229 361.7959515 380.3808222 0.1025 /L 1882-Sep-17 16:03:50.000 0.013537607595 -236.692966 0.99103381075094 208.744136 362.0072043 380.5817456 0.1017 /L 1882-Sep-17 16:04:00.000 0.013521798235 -236.645841 0.99104776563612 209.071833 362.2187854 380.7829654 0.1008 /L 1882-Sep-17 16:04:10.000 0.013505992059 -236.598172 0.99106174242243 209.400323 362.4306951 380.9844817 0.1000 /L 1882-Sep-17 16:04:20.000 0.013490189103 -236.549954 0.99107574116214 209.729608 362.6429339 381.1862949 0.0991 /L 1882-Sep-17 16:04:30.000 0.013474389403 -236.501184 0.99108976190967 210.059690 362.8555021 381.3884051 0.0983 /L 1882-Sep-17 16:04:40.000 0.013458592997 -236.451859 0.99110380471756 210.390571 363.0684001 381.5908125 0.0975 /L 1882-Sep-17 16:04:50.000 0.013442799922 -236.401975 0.99111786963920 210.722254 363.2816282 381.7935175 0.0966 /L 1882-Sep-17 16:05:00.000 0.013427010215 -236.351530 0.99113195672807 211.054739 363.4951867 381.9965202 0.0958 /L 1882-Sep-17 16:05:10.000 0.013411223915 -236.300519 0.99114606603784 211.388030 363.7090761 382.1998209 0.0950 /L 1882-Sep-17 16:05:20.000 0.013395441059 -236.248940 0.99116019762162 211.722129 363.9232967 382.4034197 0.0942 /L 1882-Sep-17 16:05:30.000 0.013379661685 -236.196788 0.99117435153471 212.057038 364.1378489 382.6073169 0.0934 /L 1882-Sep-17 16:05:40.000 0.013363885831 -236.144060 0.99118852783050 212.392759 364.3527329 382.8115126 0.0926 /L 1882-Sep-17 16:05:50.000 0.013348113536 -236.090753 0.99120272656323 212.729294 364.5679491 383.0160072 0.0918 /L 1882-Sep-17 16:06:00.000 0.013332344839 -236.036863 0.99121694778726 213.066645 364.7834979 383.2208007 0.0910 /L 1882-Sep-17 16:06:10.000 0.013316579779 -235.982387 0.99123119155711 213.404815 364.9993795 383.4258934 0.0903 /L 1882-Sep-17 16:06:20.000 0.013300818396 -235.927320 0.99124545792744 213.743806 365.2155944 383.6312855 0.0895 /L 1882-Sep-17 16:06:30.000 0.013285060729 -235.871661 0.99125974695236 214.083619 365.4321428 383.8369771 0.0887 /L 1882-Sep-17 16:06:40.000 0.013269306818 -235.815403 0.99127405868818 214.424258 365.6490251 384.0429684 0.0880 /L 1882-Sep-17 16:06:50.000 0.013253556702 -235.758545 0.99128839318932 214.765723 365.8662415 384.2492597 0.0873 /L 1882-Sep-17 16:07:00.000 0.013237810422 -235.701083 0.99130275051099 215.108018 366.0837924 384.4558510 0.0865 /L 1882-Sep-17 16:07:10.000 0.013222068019 -235.643012 0.99131713070859 215.451144 366.3016781 384.6627426 0.0858 /L 1882-Sep-17 16:07:20.000 0.013206329534 -235.584329 0.99133153383764 215.795104 366.5198990 384.8699345 0.0851 /L 1882-Sep-17 16:07:30.000 0.013190595007 -235.525031 0.99134595995311 216.139900 366.7384552 385.0774270 0.0844 /L 1882-Sep-17 16:07:40.000 0.013174864480 -235.465113 0.99136040911219 216.485534 366.9573471 385.2852202 0.0837 /L 1882-Sep-17 16:07:50.000 0.013159137994 -235.404572 0.99137488137015 216.832008 367.1765749 385.4933143 0.0830 /L 1882-Sep-17 16:08:00.000 0.013143415591 -235.343404 0.99138937678309 217.179325 367.3961391 385.7017094 0.0823 /L 1882-Sep-17 16:08:10.000 0.013127697313 -235.281605 0.99140389540726 217.527486 367.6160398 385.9104056 0.0817 /L 1882-Sep-17 16:08:20.000 0.013111983203 -235.219171 0.99141843729904 217.876493 367.8362773 386.1194030 0.0810 /L 1882-Sep-17 16:08:30.000 0.013096273303 -235.156099 0.99143300251429 218.226350 368.0568519 386.3287018 0.0804 /L 1882-Sep-17 16:08:40.000 0.013080567656 -235.092385 0.99144759111105 218.577057 368.2777639 386.5383021 0.0798 /L 1882-Sep-17 16:08:50.000 0.013064866304 -235.028024 0.99146220314547 218.928618 368.4990135 386.7482041 0.0791 /L 1882-Sep-17 16:09:00.000 0.013049169292 -234.963013 0.99147683867451 219.281034 368.7206010 386.9584077 0.0785 /L 1882-Sep-17 16:09:10.000 0.013033476662 -234.897348 0.99149149775529 219.634308 368.9425267 387.1689132 0.0779 /L 1882-Sep-17 16:09:20.000 0.013017788460 -234.831024 0.99150618044507 219.988442 369.1647907 387.3797206 0.0774 /L 1882-Sep-17 16:09:30.000 0.013002104728 -234.764038 0.99152088680054 220.343437 369.3873933 387.5908299 0.0768 /L 1882-Sep-17 16:09:40.000 0.012986425511 -234.696387 0.99153561688066 220.699297 369.6103348 387.8022414 0.0762 /L 1882-Sep-17 16:09:50.000 0.012970750855 -234.628064 0.99155037074242 221.056022 369.8336154 388.0139551 0.0757 /L 1882-Sep-17 16:10:00.000 0.012955080803 -234.559068 0.99156514844366 221.413617 370.0572353 388.2259710 0.0752 /L 1882-Sep-17 16:10:10.000 0.012939415401 -234.489392 0.99157995004235 221.772081 370.2811948 388.4382892 0.0746 /L 1882-Sep-17 16:10:20.000 0.012923754694 -234.419035 0.99159477559662 222.131419 370.5054940 388.6509098 0.0741 /L 1882-Sep-17 16:10:30.000 0.012908098730 -234.347990 0.99160962516403 222.491632 370.7301331 388.8638328 0.0737 /L 1882-Sep-17 16:10:40.000 0.012892447552 -234.276255 0.99162449880442 222.852721 370.9551125 389.0770583 0.0732 /L 1882-Sep-17 16:10:50.000 0.012876801208 -234.203824 0.99163939657564 223.214690 371.1804322 389.2905863 0.0727 /L 1882-Sep-17 16:11:00.000 0.012861159745 -234.130695 0.99165431853639 223.577541 371.4060925 389.5044168 0.0723 /L 1882-Sep-17 16:11:10.000 0.012845523208 -234.056861 0.99166926474551 223.941275 371.6320935 389.7185500 0.0718 /L 1882-Sep-17 16:11:20.000 0.012829891646 -233.982320 0.99168423526200 224.305894 371.8584355 389.9329857 0.0714 /L 1882-Sep-17 16:11:30.000 0.012814265107 -233.907067 0.99169923014427 224.671402 372.0851185 390.1477240 0.0710 /L 1882-Sep-17 16:11:40.000 0.012798643636 -233.831097 0.99171424945305 225.037800 372.3121428 390.3627650 0.0706 /L 1882-Sep-17 16:11:50.000 0.012783027283 -233.754406 0.99172929324702 225.405090 372.5395086 390.5781085 0.0703 /T 1882-Sep-17 16:12:00.000 0.012767416096 -233.676990 0.99174436158577 225.773275 372.7672159 390.7937547 0.0699 /T 1882-Sep-17 16:12:10.000 0.012751810123 -233.598845 0.99175945452900 226.142356 372.9952650 391.0097035 0.0696 /T 1882-Sep-17 16:12:20.000 0.012736209414 -233.519965 0.99177457213656 226.512335 373.2236560 391.2259549 0.0693 /T 1882-Sep-17 16:12:30.000 0.012720614018 -233.440347 0.99178971446772 226.883216 373.4523890 391.4425088 0.0690 /T 1882-Sep-17 16:12:40.000 0.012705023984 -233.359986 0.99180488158407 227.255000 373.6814641 391.6593653 0.0687 /T 1882-Sep-17 16:12:50.000 0.012689439362 -233.278878 0.99182007354517 227.627689 373.9108815 391.8765242 0.0685 /T 1882-Sep-17 16:13:00.000 0.012673860202 -233.197018 0.99183529041144 228.001285 374.1406413 392.0939856 0.0682 /T 1882-Sep-17 16:13:10.000 0.012658286554 -233.114401 0.99185053224345 228.375790 374.3707436 392.3117493 0.0680 /T 1882-Sep-17 16:13:20.000 0.012642718470 -233.031023 0.99186579910191 228.751207 374.6011885 392.5298153 0.0678 /T 1882-Sep-17 16:13:30.000 0.012627156000 -232.946880 0.99188109104693 229.127538 374.8319761 392.7481835 0.0676 /T 1882-Sep-17 16:13:40.000 0.012611599196 -232.861966 0.99189640814097 229.504785 375.0631065 392.9668539 0.0674 /T 1882-Sep-17 16:13:50.000 0.012596048108 -232.776277 0.99191175044444 229.882950 375.2945797 393.1858264 0.0673 /T 1882-Sep-17 16:14:00.000 0.012580502790 -232.689809 0.99192711801860 230.262034 375.5263959 393.4051008 0.0671 /T 1882-Sep-17 16:14:10.000 0.012564963294 -232.602556 0.99194251092488 230.642041 375.7585551 393.6246771 0.0670 /T 1882-Sep-17 16:14:20.000 0.012549429671 -232.514514 0.99195792922482 231.022972 375.9910574 393.8445551 0.0669 /T 1882-Sep-17 16:14:30.000 0.012533901976 -232.425679 0.99197337297939 231.404830 376.2239027 394.0647348 0.0669 /T 1882-Sep-17 16:14:40.000 0.012518380260 -232.336044 0.99198884225191 231.787616 376.4570912 394.2852159 0.0668 /T 1882-Sep-17 16:14:50.000 0.012502864578 -232.245607 0.99200433710360 232.171333 376.6906229 394.5059984 0.0668 /T 1882-Sep-17 16:15:00.000 0.012487354984 -232.154360 0.99201985759659 232.555982 376.9244979 394.7270820 0.0668 /T 1882-Sep-17 16:15:10.000 0.012471851532 -232.062301 0.99203540379314 232.941567 377.1587160 394.9484667 0.0668 /T 1882-Sep-17 16:15:20.000 0.012456354275 -231.969424 0.99205097575563 233.328088 377.3932774 395.1701523 0.0668 /T 1882-Sep-17 16:15:30.000 0.012440863271 -231.875723 0.99206657354586 233.715548 377.6281821 395.3921386 0.0668 /T 1882-Sep-17 16:15:40.000 0.012425378572 -231.781195 0.99208219722798 234.103949 377.8634300 395.6144255 0.0669 /T 1882-Sep-17 16:15:50.000 0.012409900234 -231.685833 0.99209784686406 234.493293 378.0990211 395.8370126 0.0670 /T 1882-Sep-17 16:16:00.000 0.012394428315 -231.589634 0.99211352251706 234.883583 378.3349555 396.0598999 0.0671 /T 1882-Sep-17 16:16:10.000 0.012378962869 -231.492592 0.99212922425004 235.274820 378.5712330 396.2830870 0.0672 /T 1882-Sep-17 16:16:20.000 0.012363503953 -231.394701 0.99214495212624 235.667006 378.8078537 396.5065739 0.0673 /T 1882-Sep-17 16:16:30.000 0.012348051626 -231.295958 0.99216070620825 236.060143 379.0448174 396.7303602 0.0675 /T 1882-Sep-17 16:16:40.000 0.012332605941 -231.196356 0.99217648656108 236.454234 379.2821242 396.9544458 0.0677 /T 1882-Sep-17 16:16:50.000 0.012317166959 -231.095890 0.99219229324760 236.849280 379.5197739 397.1788303 0.0679 /T 1882-Sep-17 16:17:00.000 0.012301734737 -230.994556 0.99220812633156 237.245284 379.7577666 397.4035135 0.0681 /T 1882-Sep-17 16:17:10.000 0.012286309332 -230.892348 0.99222398587688 237.642247 379.9961020 397.6284951 0.0683 /T 1882-Sep-17 16:17:20.000 0.012270890804 -230.789261 0.99223987194759 238.040171 380.2347801 397.8537749 0.0686 /T 1882-Sep-17 16:17:30.000 0.012255479212 -230.685290 0.99225578460708 238.439059 380.4738008 398.0793525 0.0688 /T 1882-Sep-17 16:17:40.000 0.012240074614 -230.580429 0.99227172392117 238.838913 380.7131640 398.3052277 0.0691 /T 1882-Sep-17 16:17:50.000 0.012224677070 -230.474673 0.99228768995354 239.239734 380.9528696 398.5314002 0.0694 /T 1882-Sep-17 16:18:00.000 0.012209286641 -230.368016 0.99230368276875 239.641524 381.1929174 398.7578695 0.0697 /T 1882-Sep-17 16:18:10.000 0.012193903387 -230.260454 0.99231970243149 240.044286 381.4333073 398.9846355 0.0701 /T 1882-Sep-17 16:18:20.000 0.012178527367 -230.151981 0.99233574900659 240.448021 381.6740391 399.2116977 0.0704 /T 1882-Sep-17 16:18:30.000 0.012163158646 -230.042591 0.99235182255823 240.852732 381.9151127 399.4390557 0.0708 /T 1882-Sep-17 16:18:40.000 0.012147797281 -229.932279 0.99236792315304 241.258420 382.1565278 399.6667093 0.0712 /T 1882-Sep-17 16:18:50.000 0.012132443336 -229.821039 0.99238405085546 241.665087 382.3982844 399.8946580 0.0716 /T 1882-Sep-17 16:19:00.000 0.012117096873 -229.708866 0.99240020573084 242.072735 382.6403821 400.1229015 0.0720 /T 1882-Sep-17 16:19:10.000 0.012101757954 -229.595755 0.99241638784464 242.481366 382.8828209 400.3514393 0.0724 /T 1882-Sep-17 16:19:20.000 0.012086426643 -229.481699 0.99243259726246 242.890983 383.1256004 400.5802711 0.0729 /T 1882-Sep-17 16:19:30.000 0.012071103003 -229.366693 0.99244883404926 243.301586 383.3687205 400.8093963 0.0734 /T 1882-Sep-17 16:19:40.000 0.012055787096 -229.250732 0.99246509827243 243.713178 383.6121809 401.0388146 0.0738 /T 1882-Sep-17 16:19:50.000 0.012040478988 -229.133809 0.99248138999717 244.125760 383.8559813 401.2685255 0.0743 /T 1882-Sep-17 16:20:00.000 0.012025178743 -229.015919 0.99249770928959 244.539335 384.1001216 401.4985286 0.0748 /T 1882-Sep-17 16:20:10.000 0.012009886425 -228.897057 0.99251405621590 244.953905 384.3446014 401.7288233 0.0754 /T 1882-Sep-17 16:20:20.000 0.011994602100 -228.777216 0.99253043084246 245.369471 384.5894203 401.9594093 0.0759 /T 1882-Sep-17 16:20:30.000 0.011979325834 -228.656390 0.99254683323572 245.786034 384.8345783 402.1902859 0.0764 /T 1882-Sep-17 16:20:40.000 0.011964057692 -228.534575 0.99256326346151 246.203598 385.0800748 402.4214527 0.0770 /T 1882-Sep-17 16:20:50.000 0.011948797740 -228.411763 0.99257972158810 246.622163 385.3259097 402.6529092 0.0776 /T 1882-Sep-17 16:21:00.000 0.011933546046 -228.287949 0.99259620768153 247.041732 385.5720825 402.8846548 0.0782 /T 1882-Sep-17 16:21:10.000 0.011918302677 -228.163127 0.99261272180875 247.462306 385.8185929 403.1166889 0.0788 /T 1882-Sep-17 16:21:20.000 0.011903067699 -228.037292 0.99262926403684 247.883887 386.0654406 403.3490111 0.0794 /T 1882-Sep-17 16:21:30.000 0.011887841182 -227.910436 0.99264583443298 248.306477 386.3126252 403.5816206 0.0800 /T 1882-Sep-17 16:21:40.000 0.011872623194 -227.782554 0.99266243306367 248.730078 386.5601463 403.8145170 0.0806 /T 1882-Sep-17 16:21:50.000 0.011857413803 -227.653641 0.99267905999793 249.154691 386.8080035 404.0476996 0.0813 /T 1882-Sep-17 16:22:00.000 0.011842213077 -227.523689 0.99269571530248 249.580317 387.0561964 404.2811678 0.0819 /T 1882-Sep-17 16:22:10.000 0.011827021088 -227.392693 0.99271239904499 250.006960 387.3047245 404.5149210 0.0826 /T 1882-Sep-17 16:22:20.000 0.011811837905 -227.260647 0.99272911129319 250.434620 387.5535875 404.7489585 0.0832 /T 1882-Sep-17 16:22:30.000 0.011796663598 -227.127543 0.99274585211497 250.863299 387.8027849 404.9832797 0.0839 /T 1882-Sep-17 16:22:40.000 0.011781498238 -226.993378 0.99276262157751 251.292999 388.0523162 405.2178838 0.0846 /T 1882-Sep-17 16:22:50.000 0.011766341897 -226.858142 0.99277941975049 251.723721 388.3021809 405.4527702 0.0853 /T 1882-Sep-17 16:23:00.000 0.011751194645 -226.721832 0.99279624670132 252.155467 388.5523785 405.6879382 0.0860 /T 1882-Sep-17 16:23:10.000 0.011736056556 -226.584440 0.99281310249831 252.588238 388.8029086 405.9233871 0.0868 /T 1882-Sep-17 16:23:20.000 0.011720927700 -226.445959 0.99282998720986 253.022037 389.0537706 406.1591160 0.0875 /T 1882-Sep-17 16:23:30.000 0.011705808153 -226.306385 0.99284690090449 253.456865 389.3049640 406.3951244 0.0882 /T 1882-Sep-17 16:23:40.000 0.011690697987 -226.165709 0.99286384365003 253.892723 389.5564882 406.6314113 0.0890 /T 1882-Sep-17 16:23:50.000 0.011675597274 -226.023926 0.99288081551680 254.329613 389.8083427 406.8679761 0.0897 /T 1882-Sep-17 16:24:00.000 0.011660506091 -225.881029 0.99289781657285 254.767537 390.0605268 407.1048179 0.0905 /T 1882-Sep-17 16:24:10.000 0.011645424511 -225.737011 0.99291484688708 255.206495 390.3130400 407.3419359 0.0913 /T 1882-Sep-17 16:24:20.000 0.011630352609 -225.591867 0.99293190652854 255.646490 390.5658817 407.5793293 0.0920 /T 1882-Sep-17 16:24:30.000 0.011615290461 -225.445589 0.99294899556635 256.087523 390.8190513 407.8169972 0.0928 /T 1882-Sep-17 16:24:40.000 0.011600238144 -225.298171 0.99296611406892 256.529595 391.0725480 408.0549387 0.0936 /T 1882-Sep-17 16:24:50.000 0.011585195733 -225.149606 0.99298326210720 256.972708 391.3263713 408.2931531 0.0944 /T 1882-Sep-17 16:25:00.000 0.011570163304 -224.999888 0.99300043974979 257.416863 391.5805205 408.5316393 0.0952 /T 1882-Sep-17 16:25:10.000 0.011555140936 -224.849009 0.99301764706619 257.862062 391.8349948 408.7703965 0.0960 /T 1882-Sep-17 16:25:20.000 0.011540128707 -224.696963 0.99303488412602 258.308306 392.0897937 409.0094237 0.0968 /T 1882-Sep-17 16:25:30.000 0.011525126693 -224.543744 0.99305215099895 258.755596 392.3449163 409.2487200 0.0977 /T 1882-Sep-17 16:25:40.000 0.011510134976 -224.389344 0.99306944775395 259.203934 392.6003619 409.4882845 0.0985 /T 1882-Sep-17 16:25:50.000 0.011495153632 -224.233756 0.99308677446253 259.653321 392.8561297 409.7281160 0.0993 /T 1882-Sep-17 16:26:00.000 0.011480182741 -224.076974 0.99310413119382 260.103758 393.1122191 409.9682138 0.1002 /T 1882-Sep-17 16:26:10.000 0.011465222385 -223.918991 0.99312151801785 260.555247 393.3686291 410.2085766 0.1010 /T 1882-Sep-17 16:26:20.000 0.011450272642 -223.759799 0.99313893500476 261.007789 393.6253590 410.4492035 0.1019 /T 1882-Sep-17 16:26:30.000 0.011435333595 -223.599393 0.99315638222474 261.461384 393.8824080 410.6900935 0.1027 /T 1882-Sep-17 16:26:40.000 0.011420405324 -223.437764 0.99317385974725 261.916035 394.1397752 410.9312453 0.1036 /T 1882-Sep-17 16:26:50.000 0.011405487912 -223.274905 0.99319136764431 262.371742 394.3974597 411.1726581 0.1044 /T 1882-Sep-17 16:27:00.000 0.011390581440 -223.110811 0.99320890598553 262.828507 394.6554608 411.4143306 0.1053 /T 1882-Sep-17 16:27:10.000 0.011375685993 -222.945472 0.99322647484143 263.286331 394.9137774 411.6562617 0.1062 /T 1882-Sep-17 16:27:20.000 0.011360801652 -222.778883 0.99324407428260 263.745214 395.1724087 411.8984502 0.1071 /T 1882-Sep-17 16:27:30.000 0.011345928501 -222.611036 0.99326170437969 264.205158 395.4313537 412.1408950 0.1079 /T 1882-Sep-17 16:27:40.000 0.011331066627 -222.441924 0.99327936520259 264.666164 395.6906114 412.3835950 0.1088 /T 1882-Sep-17 16:27:50.000 0.011316216111 -222.271539 0.99329705682380 265.128233 395.9501810 412.6265488 0.1097 /T 1882-Sep-17 16:28:00.000 0.011301377041 -222.099875 0.99331477931332 265.591366 396.2100614 412.8697553 0.1106 /T 1882-Sep-17 16:28:10.000 0.011286549501 -221.926924 0.99333253274211 266.055564 396.4702516 413.1132132 0.1115 /T 1882-Sep-17 16:28:20.000 0.011271733579 -221.752678 0.99335031718115 266.520828 396.7307505 413.3569212 0.1124 /T 1882-Sep-17 16:28:30.000 0.011256929360 -221.577130 0.99336813270150 266.987159 396.9915572 413.6008781 0.1133 /T 1882-Sep-17 16:28:40.000 0.011242136932 -221.400273 0.99338597937343 267.454557 397.2526705 413.8450825 0.1142 /T 1882-Sep-17 16:28:50.000 0.011227356383 -221.222100 0.99340385726980 267.923024 397.5140894 414.0895331 0.1152 /T 1882-Sep-17 16:29:00.000 0.011212587800 -221.042602 0.99342176646101 268.392560 397.7758127 414.3342286 0.1161 /T 1882-Sep-17 16:29:10.000 0.011197831273 -220.861772 0.99343970701834 268.863166 398.0378393 414.5791675 0.1170 /T 1882-Sep-17 16:29:20.000 0.011183086891 -220.679603 0.99345767901311 269.334844 398.3001681 414.8243485 0.1179 /T 1882-Sep-17 16:29:30.000 0.011168354743 -220.496087 0.99347568251672 269.807593 398.5627978 415.0697701 0.1189 /T 1882-Sep-17 16:29:40.000 0.011153634920 -220.311216 0.99349371759974 270.281414 398.8257274 415.3154310 0.1198 /T 1882-Sep-17 16:29:50.000 0.011138927512 -220.124983 0.99351178433537 270.756308 399.0889555 415.5613296 0.1207 /T 1882-Sep-17 16:30:00.000 0.011124232611 -219.937381 0.99352988279427 271.232277 399.3524809 415.8074644 0.1217 /T $$EOE ***************************************************************************************************************************** Column meaning: TIME Times PRIOR to 1962 are UT1, a mean-solar time closely related to the prior but now-deprecated GMT. Times AFTER 1962 are in UTC, the current civil or "wall-clock" time-scale. UTC is kept within 0.9 seconds of UT1 using integer leap-seconds for 1972 and later years. Conversion from the internal Barycentric Dynamical Time (TDB) of solar system dynamics to the non-uniform civil UT time-scale requested for output has not been determined for UTC times after the next July or January 1st. Therefore, the last known leap-second is used as a constant over future intervals. Time tags refer to the UT time-scale conversion from TDB on Earth regardless of observer location within the solar system, although clock rates may differ due to the local gravity field and no analog to "UT" may be defined for that location. Any 'b' symbol in the 1st-column denotes a B.C. date. First-column blank (" ") denotes an A.D. date. CALENDAR SYSTEM Mixed calendar mode was active such that calendar dates after AD 1582-Oct-15 (if any) are in the modern Gregorian system. Dates prior to 1582-Oct-5 (if any) are in the Julian calendar system, which is automatically extended for dates prior to its adoption on 45-Jan-1 BC. The Julian calendar is useful for matching historical dates. The Gregorian calendar more accurately corresponds to the Earth's orbital motion and seasons. A "Gregorian-only" calendar mode is available if such physical events are the primary interest. NOTE: "n.a." in output means quantity "not available" at the print-time. 'r rdot' = The Sun's apparent range ("r", light-time aberrated) and range-rate ("rdot") relative to the target center, as seen by the observer. A positive "rdot" means the target center was moving away from the Sun, negative means moving toward the Sun. Units: AU and KM/S 'delta deldot' = Apparent range ("delta", light-time aberrated) and range-rate ("delta-dot") of the target center relative to the observer. A positive "deldot" means the target center is moving away from the observer, negative indicates movement toward the observer. Units: AU and KM/S 'VmagSn VmagOb' = Magnitude of target centers' velocity with respect to the Sun ("VmagSn") and the observer ("VmagOb") at the time light left the target center to be observed (print time minus down-leg light-time). These are absolute values of the velocity vectors (total speeds) and do NOT indicate direction of motion. Units: KM/S 'S-O-T /r' = Sun-Observer-Target apparent SOLAR ELONGATION ANGLE seen from the observers' location at print-time. The '/r' column provides a code indicating the targets' apparent position relative to the Sun in the observers' sky, as described below: Case A: For an observing location on the surface of a rotating body, that body rotational sense is considered: /T indicates target TRAILS Sun (evening sky: rises and sets AFTER Sun) /L indicates target LEADS Sun (morning sky: rises and sets BEFORE Sun) Case B: For an observing point that does not have a rotational model (such as a spacecraft), the "leading" and "trailing" condition is defined by the observers' heliocentric ORBITAL motion: * If continuing in the observers' current direction of heliocentric motion would encounter the targets' apparent longitude first, followed by the Sun's, the target LEADS the Sun as seen by the observer. * If the Sun's apparent longitude would be encountered first, followed by the targets', the target TRAILS the Sun. Two other codes can be output: /* indicates observer is Sun-centered (undefined) /? Target is aligned with Sun center (no lead or trail) The S-O-T solar elongation angle is numerically the minimum separation angle of the Sun and target in the sky in any direction. It does NOT indicate the amount of separation in the leading or trailing directions, which would be defined along the equator of a spherical coordinate system. Units: DEGREES Computations by ... Solar System Dynamics Group, Horizons On-Line Ephemeris System 4800 Oak Grove Drive, Jet Propulsion Laboratory Pasadena, CA 91109 USA General site: https://ssd.jpl.nasa.gov/ Mailing list: https://ssd.jpl.nasa.gov/email_list.html System news : https://ssd.jpl.nasa.gov/horizons/news.html User Guide : https://ssd.jpl.nasa.gov/horizons/manual.html Connect : browser https://ssd.jpl.nasa.gov/horizons/app.html#/x API https://ssd-api.jpl.nasa.gov/doc/horizons.html command-line telnet ssd.jpl.nasa.gov 6775 e-mail/batch https://ssd.jpl.nasa.gov/ftp/ssd/horizons_batch.txt scripts https://ssd.jpl.nasa.gov/ftp/ssd/SCRIPTS Author : Jon.D.Giorgini@jpl.nasa.gov ***************************************************************************************************************************** !$$SOF COMMAND = '1882 R1-A' QUANTITIES = '19,20,22,23' START_TIME = '1882-Sep-17 16:00' STEP_SIZE = '180' STOP_TIME = '1882-Sep-17 16:30'